AUR634 EGJB-EGPH

Flight info

Callsign AUR634
Flight time 1h 11m
Altitude 24000
Route SKERY L22 EMWIP P16 FIMCA/N0449F390 DCT BHD DCT WIGGU DCT TIGWE DCT AZCAL DCT DIZIM DCT KISWO DCT AVTIC DCT ANJAK/N0440F380 N38 NOKIN UP16 RIBEL DCT SHAPP DCT ABEVI N601 INPIP
Aircraft E190/M-SDE3GILORVW/S

Departure

Time 2026-05-06 18:55
Airport Guernsey Airport (EGJB)

Arrival

Time 2026-05-06 20:06
Airport Edinburgh Airport (EGPH)
Time Latitude Longitude Altitude Speed Heading
2026-05-06 18:37 49.43274 -2.59563 327 ft 0 kts 178°
2026-05-06 18:48 49.43299 -2.59563 328 ft 4 kts 182°
2026-05-06 18:48 49.43326 -2.59560 328 ft 4 kts 191°
2026-05-06 18:48 49.43351 -2.59548 326 ft 4 kts 215°
2026-05-06 18:48 49.43364 -2.59524 329 ft 1 kts 268°
2026-05-06 18:49 49.43364 -2.59517 326 ft 0 kts 268°
2026-05-06 18:51 49.43364 -2.59555 326 ft 9 kts 268°
2026-05-06 18:51 49.43359 -2.59698 327 ft 15 kts 266°
2026-05-06 18:51 49.43344 -2.59867 321 ft 19 kts 267°
2026-05-06 18:51 49.43340 -2.60049 309 ft 19 kts 266°
2026-05-06 18:52 49.43333 -2.60268 295 ft 17 kts 268°
2026-05-06 18:52 49.43328 -2.60475 295 ft 21 kts 268°
2026-05-06 18:52 49.43336 -2.60689 295 ft 20 kts 279°
2026-05-06 18:52 49.43357 -2.60868 304 ft 14 kts 280°
2026-05-06 18:53 49.43364 -2.60984 311 ft 8 kts 270°
2026-05-06 18:53 49.43361 -2.61115 310 ft 17 kts 268°
2026-05-06 18:53 49.43388 -2.61297 313 ft 19 kts 310°
2026-05-06 18:53 49.43465 -2.61339 313 ft 5 kts 59°
2026-05-06 18:54 49.43466 -2.61318 314 ft 0 kts 87°
2026-05-06 18:54 49.43469 -2.61179 311 ft 48 kts 88°
2026-05-06 18:54 49.43497 -2.60233 312 ft 126 kts 87°
2026-05-06 18:54 49.43536 -2.58727 877 ft 144 kts 88°
2026-05-06 18:55 49.43578 -2.57090 1606 ft 160 kts 88°
2026-05-06 18:55 49.43612 -2.55342 2529 ft 165 kts 88°
2026-05-06 18:55 49.43644 -2.53542 3417 ft 172 kts 88°
2026-05-06 18:55 49.43674 -2.51584 3918 ft 189 kts 88°
2026-05-06 18:56 49.43720 -2.49514 4053 ft 202 kts 82°
2026-05-06 18:56 49.44268 -2.47455 3962 ft 219 kts 49°
2026-05-06 18:56 49.45270 -2.45551 4111 ft 241 kts 52°
2026-05-06 18:56 49.46566 -2.43890 4135 ft 250 kts 20°
2026-05-06 18:57 49.48310 -2.43786 4754 ft 260 kts 343°
2026-05-06 18:57 49.49879 -2.45152 5638 ft 261 kts 319°
2026-05-06 18:57 49.51241 -2.47032 6445 ft 265 kts 316°
2026-05-06 18:57 49.52609 -2.48968 7205 ft 268 kts 317°
2026-05-06 18:58 49.54025 -2.50876 7962 ft 271 kts 318°
2026-05-06 18:58 49.55452 -2.52754 8723 ft 274 kts 319°
2026-05-06 18:58 49.56919 -2.54656 9514 ft 277 kts 319°
2026-05-06 18:58 49.58406 -2.56591 10243 ft 284 kts 319°
2026-05-06 18:59 49.59961 -2.58656 10574 ft 303 kts 318°
2026-05-06 18:59 49.61591 -2.60853 10998 ft 319 kts 317°
2026-05-06 18:59 49.63292 -2.63175 11471 ft 332 kts 317°
2026-05-06 18:59 49.65014 -2.65546 12155 ft 338 kts 317°
2026-05-06 19:00 49.66777 -2.67986 12956 ft 343 kts 317°
2026-05-06 19:00 49.68567 -2.70455 13798 ft 347 kts 317°
2026-05-06 19:00 49.70376 -2.72960 14602 ft 350 kts 317°
2026-05-06 19:00 49.72199 -2.75499 15399 ft 355 kts 317°
2026-05-06 19:01 49.74039 -2.78073 16202 ft 359 kts 316°
2026-05-06 19:01 49.75891 -2.80689 16988 ft 362 kts 316°
2026-05-06 19:01 49.77756 -2.83354 17792 ft 366 kts 316°
2026-05-06 19:01 49.79632 -2.86061 18536 ft 370 kts 315°
2026-05-06 19:02 49.81508 -2.88811 19209 ft 373 kts 315°
2026-05-06 19:02 49.83387 -2.91605 19863 ft 376 kts 315°
2026-05-06 19:02 49.85248 -2.94408 20492 ft 379 kts 314°
2026-05-06 19:02 49.87138 -2.97294 21097 ft 382 kts 314°
2026-05-06 19:03 49.89034 -3.00224 21701 ft 385 kts 314°
2026-05-06 19:03 49.90929 -3.03187 22280 ft 388 kts 314°
2026-05-06 19:03 49.92832 -3.06191 22836 ft 391 kts 313°
2026-05-06 19:03 49.94738 -3.09231 23368 ft 394 kts 313°
2026-05-06 19:04 49.96632 -3.12278 23828 ft 397 kts 313°
2026-05-06 19:04 49.98537 -3.15364 24078 ft 390 kts 313°
2026-05-06 19:04 50.00191 -3.18552 24020 ft 370 kts 303°
2026-05-06 19:04 50.01535 -3.21851 24023 ft 352 kts 301°
2026-05-06 19:05 50.02810 -3.25044 24019 ft 344 kts 301°
2026-05-06 19:05 50.04070 -3.28199 24019 ft 342 kts 302°
2026-05-06 19:05 50.05529 -3.31118 24033 ft 342 kts 314°
2026-05-06 19:05 50.07422 -3.33373 24021 ft 344 kts 329°
2026-05-06 19:06 50.09539 -3.35121 24029 ft 345 kts 332°
2026-05-06 19:06 50.11648 -3.36803 24036 ft 345 kts 331°
2026-05-06 19:06 50.13785 -3.38512 24041 ft 345 kts 331°
2026-05-06 19:06 50.15921 -3.40221 24052 ft 345 kts 331°
2026-05-06 19:07 50.18058 -3.41933 24053 ft 345 kts 331°
2026-05-06 19:07 50.20190 -3.43645 24053 ft 345 kts 331°
2026-05-06 19:07 50.22327 -3.45360 24023 ft 345 kts 331°
2026-05-06 19:07 50.24461 -3.47076 24005 ft 344 kts 331°
2026-05-06 19:08 50.26612 -3.48724 24016 ft 345 kts 336°
2026-05-06 19:08 50.28932 -3.49711 24012 ft 348 kts 351°
2026-05-06 19:08 50.31360 -3.49802 24028 ft 350 kts 359°
2026-05-06 19:08 50.33798 -3.49664 23986 ft 352 kts 360°
2026-05-06 19:09 50.36257 -3.49523 23885 ft 348 kts
2026-05-06 19:09 50.38715 -3.49395 24038 ft 364 kts 360°
2026-05-06 19:09 50.41287 -3.49215 24077 ft 384 kts
2026-05-06 19:09 50.44009 -3.48668 24113 ft 404 kts
2026-05-06 19:10 50.46855 -3.48071 24017 ft 417 kts
2026-05-06 19:10 50.49761 -3.47483 23996 ft 425 kts
2026-05-06 19:10 50.52712 -3.46897 24007 ft 428 kts
2026-05-06 19:10 50.55643 -3.46320 24007 ft 431 kts
2026-05-06 19:11 50.58625 -3.45737 24001 ft 432 kts
2026-05-06 19:11 50.61617 -3.45155 23990 ft 433 kts
2026-05-06 19:11 50.64613 -3.44571 24008 ft 433 kts
2026-05-06 19:11 50.67607 -3.43991 24012 ft 433 kts
2026-05-06 19:12 50.70571 -3.43413 24016 ft 433 kts
2026-05-06 19:12 50.73579 -3.42830 24016 ft 434 kts
2026-05-06 19:12 50.76576 -3.42246 24018 ft 434 kts
2026-05-06 19:12 50.79575 -3.41663 24017 ft 434 kts
2026-05-06 19:13 50.82539 -3.41085 24019 ft 433 kts
2026-05-06 19:13 50.85549 -3.40499 24005 ft 433 kts
2026-05-06 19:13 50.88550 -3.39913 24003 ft 433 kts
2026-05-06 19:13 50.91541 -3.39326 24002 ft 433 kts
2026-05-06 19:14 50.94540 -3.38741 24000 ft 433 kts
2026-05-06 19:14 50.97508 -3.38158 23999 ft 433 kts
2026-05-06 19:14 51.00512 -3.37569 24001 ft 433 kts
2026-05-06 19:14 51.03507 -3.36979 24001 ft 433 kts
2026-05-06 19:15 51.06473 -3.36397 24003 ft 434 kts
2026-05-06 19:15 51.09469 -3.35806 24007 ft 434 kts
2026-05-06 19:15 51.12468 -3.35213 24005 ft 434 kts
2026-05-06 19:15 51.15462 -3.34623 24006 ft 434 kts
2026-05-06 19:16 51.18461 -3.34030 24005 ft 434 kts
2026-05-06 19:16 51.21454 -3.33437 24006 ft 434 kts
2026-05-06 19:16 51.24457 -3.32844 24006 ft 434 kts
2026-05-06 19:16 51.27424 -3.32257 24006 ft 434 kts
2026-05-06 19:17 51.30419 -3.31664 24001 ft 434 kts
2026-05-06 19:17 51.33416 -3.31068 24022 ft 434 kts
2026-05-06 19:17 51.36416 -3.30474 24022 ft 434 kts
2026-05-06 19:17 51.39415 -3.29878 24022 ft 434 kts
2026-05-06 19:18 51.42414 -3.29279 24023 ft 434 kts
2026-05-06 19:18 51.45364 -3.28693 24024 ft 434 kts
2026-05-06 19:18 51.48364 -3.28093 24022 ft 433 kts
2026-05-06 19:18 51.51358 -3.27495 24022 ft 434 kts
2026-05-06 19:19 51.54355 -3.26896 24013 ft 434 kts
2026-05-06 19:19 51.57360 -3.26293 24013 ft 434 kts
2026-05-06 19:19 51.60331 -3.25697 24014 ft 434 kts
2026-05-06 19:19 51.63331 -3.25096 24026 ft 434 kts
2026-05-06 19:20 51.66335 -3.24489 24030 ft 434 kts
2026-05-06 19:20 51.69342 -3.23884 24033 ft 434 kts
2026-05-06 19:20 51.72303 -3.23284 24036 ft 434 kts
2026-05-06 19:20 51.75301 -3.22678 24032 ft 434 kts
2026-05-06 19:21 51.78307 -3.22071 24031 ft 434 kts
2026-05-06 19:21 51.81308 -3.21463 24030 ft 434 kts
2026-05-06 19:21 51.84302 -3.20846 24032 ft 434 kts
2026-05-06 19:21 51.87260 -3.20233 24030 ft 434 kts
2026-05-06 19:22 51.90252 -3.19611 24025 ft 434 kts
2026-05-06 19:22 51.93257 -3.19170 24033 ft 433 kts
2026-05-06 19:22 51.96269 -3.18963 24025 ft 433 kts
2026-05-06 19:22 51.99278 -3.18669 24015 ft 433 kts
2026-05-06 19:23 52.02295 -3.18386 24005 ft 432 kts
2026-05-06 19:23 52.05271 -3.18108 24003 ft 432 kts
2026-05-06 19:23 52.08274 -3.17827 24004 ft 432 kts
2026-05-06 19:23 52.11285 -3.17541 24003 ft 432 kts
2026-05-06 19:24 52.14292 -3.17257 24002 ft 432 kts
2026-05-06 19:24 52.17302 -3.16971 24007 ft 432 kts
2026-05-06 19:24 52.20276 -3.16688 24006 ft 432 kts
2026-05-06 19:24 52.23288 -3.16402 24005 ft 432 kts
2026-05-06 19:25 52.26296 -3.16117 24002 ft 431 kts
2026-05-06 19:25 52.28277 -3.15926 24004 ft 432 kts
2026-05-06 19:25 52.32249 -3.15548 24010 ft 431 kts
2026-05-06 19:25 52.35248 -3.15260 24011 ft 431 kts
2026-05-06 19:26 52.38250 -3.14972 24010 ft 431 kts
2026-05-06 19:26 52.40239 -3.14782 24008 ft 431 kts
2026-05-06 19:26 52.43242 -3.14493 24011 ft 431 kts
2026-05-06 19:26 52.46245 -3.14204 24009 ft 431 kts
2026-05-06 19:27 52.49248 -3.13914 24010 ft 431 kts
2026-05-06 19:27 52.52211 -3.13627 24009 ft 431 kts
2026-05-06 19:27 52.55207 -3.13338 24009 ft 431 kts
2026-05-06 19:27 52.58212 -3.13048 24009 ft 431 kts
2026-05-06 19:28 52.61211 -3.12756 24008 ft 431 kts
2026-05-06 19:28 52.64180 -3.12470 24008 ft 431 kts
2026-05-06 19:28 52.67182 -3.12177 24006 ft 431 kts
2026-05-06 19:28 52.70183 -3.11886 24006 ft 431 kts
2026-05-06 19:29 52.73177 -3.11592 24014 ft 431 kts
2026-05-06 19:29 52.76174 -3.11301 24014 ft 431 kts
2026-05-06 19:29 52.79127 -3.11012 24013 ft 431 kts
2026-05-06 19:29 52.82125 -3.10721 24011 ft 431 kts
2026-05-06 19:30 52.85122 -3.10425 24011 ft 430 kts
2026-05-06 19:30 52.88113 -3.10134 24013 ft 430 kts
2026-05-06 19:30 52.91081 -3.09840 24013 ft 430 kts
2026-05-06 19:30 52.94078 -3.09548 24014 ft 430 kts
2026-05-06 19:31 52.97074 -3.09251 24025 ft 430 kts
2026-05-06 19:31 53.00070 -3.08955 24022 ft 429 kts
2026-05-06 19:31 53.06005 -3.08371 24021 ft 429 kts
2026-05-06 19:32 53.09001 -3.08073 24022 ft 429 kts
2026-05-06 19:32 53.11987 -3.07779 24025 ft 429 kts
2026-05-06 19:32 53.14976 -3.07480 24021 ft 429 kts
2026-05-06 19:32 53.17857 -3.07195 24020 ft 428 kts
2026-05-06 19:33 53.20795 -3.06902 24020 ft 429 kts
2026-05-06 19:33 53.23778 -3.06604 24016 ft 430 kts
2026-05-06 19:33 53.26771 -3.06306 24020 ft 430 kts
2026-05-06 19:33 53.29759 -3.06008 24020 ft 430 kts
2026-05-06 19:34 53.32746 -3.05705 24020 ft 430 kts
2026-05-06 19:34 53.35699 -3.05412 24020 ft 429 kts
2026-05-06 19:34 53.38686 -3.05111 24019 ft 430 kts
2026-05-06 19:34 53.41670 -3.04813 24018 ft 430 kts
2026-05-06 19:35 53.44666 -3.04510 24010 ft 430 kts
2026-05-06 19:35 53.47618 -3.04214 24011 ft 430 kts
2026-05-06 19:35 53.50646 -3.03908 24011 ft 430 kts
2026-05-06 19:35 53.53595 -3.03610 24011 ft 430 kts
2026-05-06 19:36 53.56583 -3.03307 24011 ft 430 kts
2026-05-06 19:36 53.59570 -3.03004 24011 ft 430 kts
2026-05-06 19:36 53.62557 -3.02702 24011 ft 430 kts
2026-05-06 19:36 53.65546 -3.02396 24011 ft 430 kts
2026-05-06 19:37 53.68533 -3.02094 24022 ft 430 kts
2026-05-06 19:37 53.71488 -3.01790 24016 ft 430 kts
2026-05-06 19:37 53.74482 -3.01486 24019 ft 429 kts
2026-05-06 19:37 53.77465 -3.01180 24008 ft 429 kts
2026-05-06 19:38 53.80421 -3.00878 24022 ft 429 kts
2026-05-06 19:38 53.83410 -3.00572 24023 ft 429 kts
2026-05-06 19:38 53.86401 -3.00265 24023 ft 429 kts
2026-05-06 19:38 53.89385 -2.99958 24023 ft 429 kts
2026-05-06 19:39 53.92365 -2.99650 24025 ft 429 kts
2026-05-06 19:39 53.95314 -2.99347 24024 ft 429 kts
2026-05-06 19:39 53.98300 -2.99037 24019 ft 429 kts
2026-05-06 19:39 54.01293 -2.98729 24020 ft 430 kts
2026-05-06 19:40 54.04283 -2.98418 24014 ft 429 kts
2026-05-06 19:40 54.07269 -2.98109 24018 ft 429 kts
2026-05-06 19:40 54.10216 -2.97803 24013 ft 429 kts
2026-05-06 19:40 54.13205 -2.97492 24011 ft 430 kts
2026-05-06 19:41 54.16187 -2.97181 24017 ft 430 kts
2026-05-06 19:41 54.19184 -2.96869 24003 ft 430 kts
2026-05-06 19:41 54.22121 -2.96561 24004 ft 420 kts
2026-05-06 19:41 54.25011 -2.96256 23995 ft 414 kts
2026-05-06 19:42 54.27886 -2.95956 24017 ft 412 kts
2026-05-06 19:42 54.30749 -2.95656 24017 ft 411 kts
2026-05-06 19:42 54.33583 -2.95357 24005 ft 402 kts
2026-05-06 19:42 54.36321 -2.95068 24018 ft 398 kts
2026-05-06 19:43 54.39094 -2.94777 24020 ft 397 kts
2026-05-06 19:43 54.41854 -2.94486 24023 ft 397 kts
2026-05-06 19:43 54.44619 -2.94193 24033 ft 397 kts
2026-05-06 19:43 54.47379 -2.93901 24038 ft 396 kts
2026-05-06 19:44 54.50098 -2.93614 24036 ft 396 kts
2026-05-06 19:44 54.52863 -2.93311 24039 ft 396 kts
2026-05-06 19:44 54.55624 -2.93023 24053 ft 396 kts
2026-05-06 19:44 54.58342 -2.92736 24061 ft 396 kts
2026-05-06 19:45 54.61100 -2.92443 24060 ft 396 kts
2026-05-06 19:45 54.63856 -2.92150 24034 ft 396 kts
2026-05-06 19:45 54.66612 -2.91857 24033 ft 395 kts
2026-05-06 19:45 54.69322 -2.91567 24027 ft 390 kts
2026-05-06 19:46 54.72001 -2.91277 24026 ft 381 kts
2026-05-06 19:46 54.74628 -2.90994 24014 ft 375 kts
2026-05-06 19:46 54.77238 -2.90716 24030 ft 374 kts
2026-05-06 19:46 54.79805 -2.90440 24038 ft 374 kts
2026-05-06 19:47 54.82406 -2.90162 24036 ft 374 kts
2026-05-06 19:47 54.85007 -2.89882 24035 ft 373 kts
2026-05-06 19:47 54.87595 -2.89974 24038 ft 368 kts 346°
2026-05-06 19:47 54.89981 -2.91314 24050 ft 365 kts 336°
2026-05-06 19:48 54.92347 -2.93032 23709 ft 367 kts 334°
2026-05-06 19:48 54.94698 -2.94759 23290 ft 365 kts 334°
2026-05-06 19:48 54.97037 -2.96463 22848 ft 362 kts 335°
2026-05-06 19:48 54.99358 -2.98123 22447 ft 358 kts 334°
2026-05-06 19:49 55.01645 -2.99769 22046 ft 355 kts 334°
2026-05-06 19:49 55.03928 -3.01417 21636 ft 356 kts 334°
2026-05-06 19:49 55.06195 -3.03064 21257 ft 357 kts 334°
2026-05-06 19:49 55.08496 -3.04734 20870 ft 356 kts 334°
2026-05-06 19:50 55.10784 -3.06401 20485 ft 355 kts 334°
2026-05-06 19:50 55.13070 -3.08068 19967 ft 356 kts 334°
2026-05-06 19:50 55.15327 -3.09718 19427 ft 354 kts 334°
2026-05-06 19:50 55.17598 -3.11380 18891 ft 351 kts 334°
2026-05-06 19:51 55.19846 -3.13031 18362 ft 349 kts 334°
2026-05-06 19:51 55.22081 -3.14673 17760 ft 346 kts 334°
2026-05-06 19:51 55.24296 -3.16301 17166 ft 344 kts 334°
2026-05-06 19:51 55.26470 -3.17901 16551 ft 339 kts 334°
2026-05-06 19:52 55.28632 -3.19494 15876 ft 335 kts 334°
2026-05-06 19:52 55.30835 -3.20862 15208 ft 334 kts 336°
2026-05-06 19:52 55.32933 -3.22589 14565 ft 331 kts 330°
2026-05-06 19:52 55.34967 -3.24478 13934 ft 329 kts 329°
2026-05-06 19:53 55.36966 -3.26352 13206 ft 329 kts 329°
2026-05-06 19:53 55.38976 -3.28251 12416 ft 326 kts 329°
2026-05-06 19:53 55.40966 -3.30138 11663 ft 323 kts 329°
2026-05-06 19:53 55.42932 -3.32006 10920 ft 319 kts 329°
2026-05-06 19:54 55.44841 -3.33830 10196 ft 309 kts 329°
2026-05-06 19:54 55.46691 -3.35587 9427 ft 296 kts 329°
2026-05-06 19:54 55.48461 -3.37340 8646 ft 285 kts 324°
2026-05-06 19:54 55.49929 -3.39578 7911 ft 283 kts 314°
2026-05-06 19:55 55.51357 -3.42036 7182 ft 290 kts 314°
2026-05-06 19:55 55.52818 -3.44542 6459 ft 294 kts 315°
2026-05-06 19:55 55.54252 -3.47001 6550 ft 268 kts 314°
2026-05-06 19:55 55.55498 -3.49140 7884 ft 230 kts 314°
2026-05-06 19:56 55.56574 -3.50946 9298 ft 204 kts 314°
2026-05-06 19:56 55.57580 -3.52583 10264 ft 196 kts 314°
2026-05-06 19:56 55.58674 -3.54376 10180 ft 235 kts 313°
2026-05-06 19:56 55.59927 -3.56550 9172 ft 269 kts 313°
2026-05-06 19:57 55.61341 -3.59024 7622 ft 293 kts 313°
2026-05-06 19:57 55.62781 -3.61581 6696 ft 288 kts 314°
2026-05-06 19:57 55.64123 -3.64108 5761 ft 281 kts 307°
2026-05-06 19:57 55.65308 -3.66766 5354 ft 260 kts 311°
2026-05-06 19:58 55.66591 -3.69005 5379 ft 266 kts 315°
2026-05-06 19:58 55.67952 -3.71283 4804 ft 268 kts 312°
2026-05-06 19:58 55.69146 -3.73683 4376 ft 253 kts 307°
2026-05-06 19:58 55.70236 -3.76018 3968 ft 240 kts 306°
2026-05-06 19:59 55.71262 -3.78260 3718 ft 224 kts 306°
2026-05-06 19:59 55.72312 -3.80182 3711 ft 219 kts 325°
2026-05-06 19:59 55.73766 -3.80937 3824 ft 218 kts 359°
2026-05-06 19:59 55.75255 -3.80892 4422 ft 219 kts 358°
2026-05-06 20:00 55.76793 -3.80878 4924 ft 222 kts 358°
2026-05-06 20:00 55.78382 -3.80723 4460 ft 238 kts
2026-05-06 20:00 55.79932 -3.79561 3607 ft 239 kts 31°
2026-05-06 20:00 55.81257 -3.78014 3491 ft 216 kts 33°
2026-05-06 20:01 55.82462 -3.76393 3554 ft 219 kts 47°
2026-05-06 20:01 55.83005 -3.74035 3877 ft 215 kts 83°
2026-05-06 20:01 55.83351 -3.71392 3458 ft 219 kts 69°
2026-05-06 20:01 55.84119 -3.69163 3151 ft 203 kts 56°
2026-05-06 20:02 55.84839 -3.67155 3122 ft 181 kts 63°
2026-05-06 20:02 55.85461 -3.65164 3139 ft 186 kts 61°
2026-05-06 20:02 55.86163 -3.63174 3071 ft 190 kts 59°
2026-05-06 20:02 55.86856 -3.61172 3077 ft 192 kts 61°
2026-05-06 20:03 55.87544 -3.59125 2941 ft 194 kts 60°
2026-05-06 20:03 55.88239 -3.57111 2618 ft 192 kts 60°
2026-05-06 20:03 55.88910 -3.55141 2344 ft 178 kts 61°
2026-05-06 20:03 55.89540 -3.53293 2098 ft 172 kts 61°
2026-05-06 20:04 55.90155 -3.51491 1863 ft 168 kts 62°
2026-05-06 20:04 55.90759 -3.49719 1635 ft 166 kts 61°
2026-05-06 20:04 55.91350 -3.47985 1401 ft 157 kts 61°
2026-05-06 20:04 55.91889 -3.46404 1182 ft 146 kts 61°
2026-05-06 20:05 55.92407 -3.44916 958 ft 137 kts 60°
2026-05-06 20:05 55.92901 -3.43508 728 ft 132 kts 62°
2026-05-06 20:05 55.93367 -3.42113 553 ft 130 kts 62°
2026-05-06 20:05 55.93830 -3.40715 383 ft 131 kts 64°
2026-05-06 20:06 55.94291 -3.39351 219 ft 129 kts 63°
2026-05-06 20:06 55.94744 -3.38009 114 ft 116 kts 62°
2026-05-06 20:06 55.95073 -3.37032 112 ft 64 kts 58°
2026-05-06 20:06 55.95216 -3.36616 112 ft 32 kts 60°
2026-05-06 20:07 55.95211 -3.36373 112 ft 17 kts 146°
2026-05-06 20:07 55.95181 -3.36338 113 ft 0 kts 148°
2026-05-06 20:07 55.95179 -3.36336 113 ft 1 kts 148°
2026-05-06 20:07 55.95147 -3.36311 114 ft 8 kts 175°
2026-05-06 20:08 55.95091 -3.36411 114 ft 16 kts 238°
2026-05-06 20:08 55.95029 -3.36589 113 ft 18 kts 238°
2026-05-06 20:08 55.94964 -3.36782 113 ft 17 kts 239°
2026-05-06 20:08 55.94886 -3.36790 114 ft 12 kts 153°
2026-05-06 20:09 55.94801 -3.36777 115 ft 13 kts 177°
2026-05-06 20:09 55.94714 -3.36738 114 ft 14 kts 178°
2026-05-06 20:09 55.94658 -3.36718 112 ft 3 kts 122°
2026-05-06 20:09 55.94656 -3.36668 115 ft 5 kts 89°
2026-05-06 20:10 55.94657 -3.36614 115 ft 1 kts 89°
2026-05-06 20:10 55.94657 -3.36607 115 ft 0 kts 89°